Monte Sarmiento — DCLH2 — position and weather

sailwx.info

Track history (hours):
 
Tides and Currents Weather Stations Pressure Air Temp Water Temp Dewpoint Dewpoint Depression Visibility Wind Speed Wind Dir Waves Ship Positions

Monte Sarmiento

Last reported at 2017-Nov-28 15:53 UTC. Time now 2017-Dec-13 19:00 UTC.
Position N 29°21' W 094°43'.
Warning: this ship's position is 15 days out of date.

Length 272 m; beam 40 m; draft 12.5 m.

Type: Cargo ship. MMSI: 211738000.

Date/timePositionNaut miles runAvg speedWind from/ knotsBaromVisibWave heightAir tempDewpointWater temp
2017-Nov-28 15:53N 29°21' W 094°43'1410.2
2017-Nov-28 14:29N 29°32' W 094°53'510.5
2017-Nov-28 14:00N 29°36' W 094°57'4 8.9
2017-Nov-28 13:30N 29°40' W 094°58'1 2.8
2017-Nov-28 13:00N 29°41' W 094°60'0 0.0
2017-Nov-28 12:29N 29°41' W 094°60'0 0.0
2017-Nov-28 11:59N 29°41' W 094°60'0 0.0
2017-Nov-28 11:29N 29°41' W 094°60'0 0.0
2017-Nov-28 10:59N 29°41' W 094°60'0 0.0
2017-Nov-28 10:29N 29°41' W 094°60'0 0.0
2017-Nov-28 09:59N 29°41' W 094°60'0 0.0
2017-Nov-28 09:29N 29°41' W 094°60'0 0.0
2017-Nov-28 08:59N 29°41' W 094°60'0 0.0
2017-Nov-28 08:29N 29°41' W 094°60'0 0.0
2017-Nov-28 07:59N 29°41' W 094°60'0 0.0
2017-Nov-28 07:29N 29°41' W 094°60'0 0.0
2017-Nov-28 06:59N 29°41' W 094°60'0 0.0
2017-Nov-28 06:29N 29°41' W 094°60'0 0.0
2017-Nov-28 05:59N 29°41' W 094°60'0 0.0
2017-Nov-28 05:29N 29°41' W 094°60'0 0.0
2017-Nov-28 04:29N 29°41' W 094°60'0 0.0
2017-Nov-28 03:59N 29°41' W 094°60'0 0.0
2017-Nov-28 03:29N 29°41' W 094°60'0 0.0
2017-Nov-28 02:59N 29°41' W 094°60'0 0.0
2017-Nov-28 02:29N 29°41' W 094°60'0 0.0
2017-Nov-28 01:59N 29°41' W 094°60'0 0.0
2017-Nov-28 01:29N 29°41' W 094°60'0 0.0
2017-Nov-28 00:59N 29°41' W 094°60'0 0.0
2017-Nov-28 00:29N 29°41' W 094°60'0 0.0
2017-Nov-27 23:59N 29°41' W 094°60'0 0.0
2017-Nov-27 23:29N 29°41' W 094°60'0 0.1
2017-Nov-27 22:59N 29°41' W 094°59'0 0.1
2017-Nov-27 22:26N 29°41' W 094°60'0 0.0
2017-Nov-27 21:56N 29°41' W 094°60'0 0.0
2017-Nov-27 21:29N 29°41' W 094°60'0 0.0
2017-Nov-27 20:56N 29°41' W 094°60'0 0.0
2017-Nov-27 20:29N 29°41' W 094°60'0 0.0
2017-Nov-27 20:00N 29°41' W 094°60'0 0.0
2017-Nov-27 19:30N 29°41' W 094°60'0 0.1
2017-Nov-27 19:00N 29°41' W 094°60'0 0.1
2017-Nov-27 18:30N 29°41' W 094°60'0 0.0
2017-Nov-27 18:00N 29°41' W 094°60'0 0.0
2017-Nov-27 17:30N 29°41' W 094°60'0 0.0
2017-Nov-27 17:00N 29°41' W 094°60'0 0.0
2017-Nov-27 16:30N 29°41' W 094°60'0 0.0
2017-Nov-27 16:01N 29°41' W 094°60'0 0.0
2017-Nov-27 15:30N 29°41' W 094°60'0 0.1
2017-Nov-27 15:00N 29°41' W 094°60'0 0.0
2017-Nov-27 14:31N 29°41' W 094°60'0 0.0
2017-Nov-27 14:00N 29°41' W 094°60'0 0.0
2017-Nov-27 13:30N 29°41' W 094°60'0 0.0
2017-Nov-27 13:00N 29°41' W 094°60'0 0.8
2017-Nov-27 12:30N 29°41' W 094°59'2 3.4
2017-Nov-27 12:01N 29°40' W 094°58'5 9.8
2017-Nov-27 11:30N 29°35' W 094°56'511.0
2017-Nov-27 11:00N 29°30' W 094°53'612.3
2017-Nov-27 10:30N 29°25' W 094°50'611.7
2017-Nov-27 10:00N 29°21' W 094°45'27512.5
2017-Nov-26 12:00N 24°54' W 096°00'201 5.6 090 / 111019.010.8 24.916.126.0
2017-Nov-25 00:00N 21°42' W 097°06'16217.1 090 / 61013.810.8 22.215.126.0
2017-Nov-24 14:33N 19°13' W 095°59'117.5
2017-Nov-24 14:29N 19°12' W 096°00'510.7
2017-Nov-24 14:00N 19°12' W 096°06'2 4.8
2017-Nov-24 13:30N 19°13' W 096°08'0 0.1
2017-Nov-24 13:00N 19°13' W 096°08'0 0.0
2017-Nov-24 12:25N 19°13' W 096°08'0 0.0
2017-Nov-24 11:55N 19°13' W 096°08'0 0.0
2017-Nov-24 11:25N 19°13' W 096°08'0 0.0
2017-Nov-24 10:49N 19°13' W 096°08'0 0.0
2017-Nov-24 10:25N 19°13' W 096°08'0 0.0
2017-Nov-24 09:55N 19°13' W 096°08'0 0.0
2017-Nov-24 09:25N 19°13' W 096°08'0 0.0
2017-Nov-24 08:55N 19°13' W 096°08'0 0.0
2017-Nov-24 08:25N 19°13' W 096°08'0 0.0
2017-Nov-24 07:55N 19°13' W 096°08'0 0.0
2017-Nov-24 07:25N 19°13' W 096°08'0 0.0
2017-Nov-24 06:55N 19°13' W 096°08'0 0.0
2017-Nov-24 06:19N 19°13' W 096°08'0 0.0
2017-Nov-24 05:55N 19°13' W 096°08'0 0.0
2017-Nov-24 05:25N 19°13' W 096°08'0 0.0
2017-Nov-24 04:55N 19°13' W 096°08'0 0.0
2017-Nov-24 04:29N 19°13' W 096°08'0 0.0
2017-Nov-24 04:00N 19°13' W 096°08'0 0.0
2017-Nov-24 03:30N 19°13' W 096°08'0 0.0
2017-Nov-24 03:00N 19°13' W 096°08'0 0.0
2017-Nov-24 02:30N 19°13' W 096°08'0 0.0
2017-Nov-24 02:00N 19°13' W 096°08'0 0.0
2017-Nov-24 01:30N 19°13' W 096°08'0 0.0
2017-Nov-24 01:00N 19°13' W 096°08'0 0.0
2017-Nov-24 00:30N 19°13' W 096°08'0 0.0
2017-Nov-24 00:00N 19°13' W 096°08'0 0.0
2017-Nov-23 23:30N 19°13' W 096°08'0 0.0
2017-Nov-23 23:00N 19°13' W 096°08'0 0.0
2017-Nov-23 22:30N 19°13' W 096°08'0 0.0
2017-Nov-23 22:00N 19°13' W 096°08'0 0.0
2017-Nov-23 21:30N 19°13' W 096°08'0 0.0
2017-Nov-23 21:00N 19°13' W 096°08'0 0.0
2017-Nov-23 20:30N 19°13' W 096°08'0 0.3
2017-Nov-23 20:00N 19°13' W 096°08'3 6.2
2017-Nov-23 19:30N 19°12' W 096°05'4 8.2
2017-Nov-23 19:00N 19°13' W 096°01'7510.7
2017-Nov-23 12:00N 19°54' W 094°54'20917.4 350 / 241018.1 5.4 21.515.825.0
2017-Nov-23 00:00N 22°18' W 092°12'19816.5 340 / 71013.610.8 24.517.527.0
2017-Nov-22 12:00N 23°00' W 088°42'79316.2 180 / 81011.910.8 24.918.627.0
2017-Nov-20 11:00N 12°24' W 080°24'191 5.3 360 / 101009.410.8 27.921.229.0
2017-Nov-18 23:00N 09°54' W 078°24'   040 / 121007.910.8 28.121.429.0
Track history (hours):
 
Tides and Currents Weather Stations Pressure Air Temp Water Temp Dewpoint Dewpoint Depression Visibility Wind Speed Wind Dir Waves Ship Positions

Monte Sarmiento

Last reported at 2017-Nov-28 15:53 UTC. Time now 2017-Dec-13 19:00 UTC.
Position N 29°21' W 094°43'.
Warning: this ship's position is 15 days out of date.

Length 272 m; beam 40 m; draft 12.5 m.

Type: Cargo ship. MMSI: 211738000.

Date/timePositionNaut miles runAvg speedWind from/ knotsBaromVisibWave heightAir tempDewpointWater temp
2017-Nov-28 15:53N 29°21' W 094°43'1410.2
2017-Nov-28 14:29N 29°32' W 094°53'510.5
2017-Nov-28 14:00N 29°36' W 094°57'4 8.9
2017-Nov-28 13:30N 29°40' W 094°58'1 2.8
2017-Nov-28 13:00N 29°41' W 094°60'0 0.0
2017-Nov-28 12:29N 29°41' W 094°60'0 0.0
2017-Nov-28 11:59N 29°41' W 094°60'0 0.0
2017-Nov-28 11:29N 29°41' W 094°60'0 0.0
2017-Nov-28 10:59N 29°41' W 094°60'0 0.0
2017-Nov-28 10:29N 29°41' W 094°60'0 0.0
2017-Nov-28 09:59N 29°41' W 094°60'0 0.0
2017-Nov-28 09:29N 29°41' W 094°60'0 0.0
2017-Nov-28 08:59N 29°41' W 094°60'0 0.0
2017-Nov-28 08:29N 29°41' W 094°60'0 0.0
2017-Nov-28 07:59N 29°41' W 094°60'0 0.0
2017-Nov-28 07:29N 29°41' W 094°60'0 0.0
2017-Nov-28 06:59N 29°41' W 094°60'0 0.0
2017-Nov-28 06:29N 29°41' W 094°60'0 0.0
2017-Nov-28 05:59N 29°41' W 094°60'0 0.0
2017-Nov-28 05:29N 29°41' W 094°60'0 0.0
2017-Nov-28 04:29N 29°41' W 094°60'0 0.0
2017-Nov-28 03:59N 29°41' W 094°60'0 0.0
2017-Nov-28 03:29N 29°41' W 094°60'0 0.0
2017-Nov-28 02:59N 29°41' W 094°60'0 0.0
2017-Nov-28 02:29N 29°41' W 094°60'0 0.0
2017-Nov-28 01:59N 29°41' W 094°60'0 0.0
2017-Nov-28 01:29N 29°41' W 094°60'0 0.0
2017-Nov-28 00:59N 29°41' W 094°60'0 0.0
2017-Nov-28 00:29N 29°41' W 094°60'0 0.0
2017-Nov-27 23:59N 29°41' W 094°60'0 0.0
2017-Nov-27 23:29N 29°41' W 094°60'0 0.1
2017-Nov-27 22:59N 29°41' W 094°59'0 0.1
2017-Nov-27 22:26N 29°41' W 094°60'0 0.0
2017-Nov-27 21:56N 29°41' W 094°60'0 0.0
2017-Nov-27 21:29N 29°41' W 094°60'0 0.0
2017-Nov-27 20:56N 29°41' W 094°60'0 0.0
2017-Nov-27 20:29N 29°41' W 094°60'0 0.0
2017-Nov-27 20:00N 29°41' W 094°60'0 0.0
2017-Nov-27 19:30N 29°41' W 094°60'0 0.1
2017-Nov-27 19:00N 29°41' W 094°60'0 0.1
2017-Nov-27 18:30N 29°41' W 094°60'0 0.0
2017-Nov-27 18:00N 29°41' W 094°60'0 0.0
2017-Nov-27 17:30N 29°41' W 094°60'0 0.0
2017-Nov-27 17:00N 29°41' W 094°60'0 0.0
2017-Nov-27 16:30N 29°41' W 094°60'0 0.0
2017-Nov-27 16:01N 29°41' W 094°60'0 0.0
2017-Nov-27 15:30N 29°41' W 094°60'0 0.1
2017-Nov-27 15:00N 29°41' W 094°60'0 0.0
2017-Nov-27 14:31N 29°41' W 094°60'0 0.0
2017-Nov-27 14:00N 29°41' W 094°60'0 0.0
2017-Nov-27 13:30N 29°41' W 094°60'0 0.0
2017-Nov-27 13:00N 29°41' W 094°60'0 0.8
2017-Nov-27 12:30N 29°41' W 094°59'2 3.4
2017-Nov-27 12:01N 29°40' W 094°58'5 9.8
2017-Nov-27 11:30N 29°35' W 094°56'511.0
2017-Nov-27 11:00N 29°30' W 094°53'612.3
2017-Nov-27 10:30N 29°25' W 094°50'611.7
2017-Nov-27 10:00N 29°21' W 094°45'27512.5
2017-Nov-26 12:00N 24°54' W 096°00'201 5.6 090 / 111019.010.8 24.916.126.0
2017-Nov-25 00:00N 21°42' W 097°06'16217.1 090 / 61013.810.8 22.215.126.0
2017-Nov-24 14:33N 19°13' W 095°59'117.5
2017-Nov-24 14:29N 19°12' W 096°00'510.7
2017-Nov-24 14:00N 19°12' W 096°06'2 4.8
2017-Nov-24 13:30N 19°13' W 096°08'0 0.1
2017-Nov-24 13:00N 19°13' W 096°08'0 0.0
2017-Nov-24 12:25N 19°13' W 096°08'0 0.0
2017-Nov-24 11:55N 19°13' W 096°08'0 0.0
2017-Nov-24 11:25N 19°13' W 096°08'0 0.0
2017-Nov-24 10:49N 19°13' W 096°08'0 0.0
2017-Nov-24 10:25N 19°13' W 096°08'0 0.0
2017-Nov-24 09:55N 19°13' W 096°08'0 0.0
2017-Nov-24 09:25N 19°13' W 096°08'0 0.0
2017-Nov-24 08:55N 19°13' W 096°08'0 0.0
2017-Nov-24 08:25N 19°13' W 096°08'0 0.0
2017-Nov-24 07:55N 19°13' W 096°08'0 0.0
2017-Nov-24 07:25N 19°13' W 096°08'0 0.0
2017-Nov-24 06:55N 19°13' W 096°08'0 0.0
2017-Nov-24 06:19N 19°13' W 096°08'0 0.0
2017-Nov-24 05:55N 19°13' W 096°08'0 0.0
2017-Nov-24 05:25N 19°13' W 096°08'0 0.0
2017-Nov-24 04:55N 19°13' W 096°08'0 0.0
2017-Nov-24 04:29N 19°13' W 096°08'0 0.0
2017-Nov-24 04:00N 19°13' W 096°08'0 0.0
2017-Nov-24 03:30N 19°13' W 096°08'0 0.0
2017-Nov-24 03:00N 19°13' W 096°08'0 0.0
2017-Nov-24 02:30N 19°13' W 096°08'0 0.0
2017-Nov-24 02:00N 19°13' W 096°08'0 0.0
2017-Nov-24 01:30N 19°13' W 096°08'0 0.0
2017-Nov-24 01:00N 19°13' W 096°08'0 0.0
2017-Nov-24 00:30N 19°13' W 096°08'0 0.0
2017-Nov-24 00:00N 19°13' W 096°08'0 0.0
2017-Nov-23 23:30N 19°13' W 096°08'0 0.0
2017-Nov-23 23:00N 19°13' W 096°08'0 0.0
2017-Nov-23 22:30N 19°13' W 096°08'0 0.0
2017-Nov-23 22:00N 19°13' W 096°08'0 0.0
2017-Nov-23 21:30N 19°13' W 096°08'0 0.0
2017-Nov-23 21:00N 19°13' W 096°08'0 0.0
2017-Nov-23 20:30N 19°13' W 096°08'0 0.3
2017-Nov-23 20:00N 19°13' W 096°08'3 6.2
2017-Nov-23 19:30N 19°12' W 096°05'4 8.2
2017-Nov-23 19:00N 19°13' W 096°01'7510.7
2017-Nov-23 12:00N 19°54' W 094°54'20917.4 350 / 241018.1 5.4 21.515.825.0
2017-Nov-23 00:00N 22°18' W 092°12'19816.5 340 / 71013.610.8 24.517.527.0
2017-Nov-22 12:00N 23°00' W 088°42'79316.2 180 / 81011.910.8 24.918.627.0
2017-Nov-20 11:00N 12°24' W 080°24'191 5.3 360 / 101009.410.8 27.921.229.0
2017-Nov-18 23:00N 09°54' W 078°24'   040 / 121007.910.8 28.121.429.0

Dump ship's entire track history